Kailua Kona, HI

7:34 PM HST on February 27, 2017 (GMT -1000)
Kona International At Keahole

Weather History for PHKO - March, 2012

Change the Weather History Date:

Friday, March 30, 2012

  Actual Average Record
Temperature  
Mean Temperature 74 °F -  
Max Temperature 82 °F 79 °F 88 °F (1986)
Min Temperature 66 °F 68 °F 64 °F (1987)
Cooling Degree Days 9    
Growing Degree Days 24 (Base 50)    
Moisture  
Dew Point 57 °F    
Average Humidity 53    
Maximum Humidity 75    
Minimum Humidity 42    
Precipitation  
Precipitation 0.00 in - - ()
Sea Level Pressure  
Sea Level Pressure 30.03 in    
Wind  
Wind Speed 9 mph (ESE)    
Max Wind Speed 26 mph    
Max Gust Speed 33 mph    
Visibility 10 miles    
Events      
Averages and records for this station are not official NWS values.
T = Trace of Precipitation, MM = Missing Value Source: NWS Daily Summary

Daily Weather History Graph

Daily Weather History Graph

Search for Another Location

Airport or City:

Trip Planner

Search our weather history database for the weather conditions in past years. The results will help you decide how hot, cold, wet, or windy it might be!

Date:

Astronomy

Mar. 30, 2012 Rise Set
Actual Time 6:19 AM HST 6:38 PM HST
Civil Twilight 5:56 AM HST 7:00 PM HST
Nautical Twilight 5:31 AM HST 7:25 PM HST
Astronomical Twilight 5:05 AM HST 7:51 PM HST
Moon 12:09 PM HST (3/30) 12:47 AM HST (3/30)
Length of Visible Light 13h 03m
Length of Day
12h 19m
Waxing Crescent, 51% of the Moon is Illuminated
Mar 30
Waxing Crescent
Apr 6
Full
Apr 13
Last Quarter
Apr 20
New
Apr 28
First Quarter

Hourly Weather History & Observations

Time (HST) Temp. Heat Index Dew Point Humidity Pressure Visibility Wind Dir Wind Speed Gust Speed Precip Events Conditions
12:53 AM 71.1 °F - 57.0 °F 61% 30.06 in 10.0 mi NE 5.8 mph - N/A   Clear
1:53 AM 69.1 °F - 55.9 °F 63% 30.04 in 10.0 mi ENE 5.8 mph - N/A   Partly Cloudy
2:53 AM 68.0 °F - 55.0 °F 63% 30.02 in 10.0 mi Calm Calm - N/A   Clear
3:53 AM 70.0 °F - 55.0 °F 59% 30.01 in 10.0 mi NE 3.5 mph - N/A   Clear
4:53 AM 66.0 °F - 55.9 °F 70% 30.01 in 10.0 mi North 6.9 mph - N/A   Clear
5:53 AM 66.0 °F - 57.9 °F 75% 30.04 in 10.0 mi NE 9.2 mph - N/A   Clear
6:53 AM 72.0 °F - 54.0 °F 53% 30.03 in 10.0 mi SSW 8.1 mph - N/A   Clear
7:53 AM 73.9 °F - 57.9 °F 57% 30.06 in 10.0 mi ESE 10.4 mph - N/A   Clear
8:53 AM 77.0 °F - 54.0 °F 45% 30.08 in 10.0 mi NNE 12.7 mph - N/A   Mostly Cloudy
9:53 AM 79.0 °F - 55.9 °F 45% 30.05 in 10.0 mi SSE 16.1 mph - N/A   Clear
10:53 AM 80.1 °F 80.7 °F 59.0 °F 48% 30.04 in 10.0 mi South 13.8 mph - N/A   Clear
11:53 AM 81.0 °F 81.6 °F 60.1 °F 49% 30.02 in 10.0 mi South 13.8 mph - N/A   Clear
12:53 PM 82.0 °F 81.7 °F 57.0 °F 42% 30.01 in 10.0 mi SSW 11.5 mph - N/A   Clear
1:53 PM 81.0 °F 81.0 °F 57.0 °F 44% 29.99 in 10.0 mi SSW 12.7 mph - N/A   Clear
2:53 PM 80.1 °F 80.2 °F 55.9 °F 43% 29.99 in 10.0 mi South 12.7 mph - N/A   Scattered Clouds
3:53 PM 78.1 °F - 57.9 °F 50% 29.99 in 10.0 mi South 9.2 mph - N/A   Clear
4:53 PM 78.1 °F - 57.9 °F 50% 30.01 in 10.0 mi South 9.2 mph - N/A   Overcast
5:53 PM 79.0 °F - 57.9 °F 48% 30.01 in 10.0 mi NNE 21.9 mph 29.9 mph N/A   Scattered Clouds
6:10 PM 78.8 °F - 57.2 °F 47% 30.01 in 10.0 mi North 26.5 mph 33.4 mph N/A   Partly Cloudy
6:53 PM 75.9 °F - 57.9 °F 54% 30.03 in 10.0 mi ESE 11.5 mph - N/A   Clear
7:53 PM 73.9 °F - 57.0 °F 55% 30.05 in 10.0 mi ESE 5.8 mph - N/A   Clear
8:53 PM 73.9 °F - 53.1 °F 48% 30.07 in 10.0 mi ESE 11.5 mph - N/A   Clear
9:53 PM 73.0 °F - 53.1 °F 49% 30.08 in 10.0 mi ENE 5.8 mph - N/A   Clear
10:53 PM 73.0 °F - 57.0 °F 57% 30.07 in 10.0 mi SE 13.8 mph - N/A   Clear
11:53 PM 72.0 °F - 57.9 °F 61% 30.07 in 10.0 mi ESE 4.6 mph - N/A   Clear